| time (UTC) | temp F | wind direction | speed knots | gust knots | rain 1hr in | rain 24hr in | rain mn in | humidity % | barometer mb |
| 20260507175050 | 69 | 241 | 13.0 | 20.9 | 0.00 | 0.00 | 0.00 | 35 | 1013.4 |
| 20260507174650 | 70 | 222 | 13.9 | 20.9 | 0.00 | 0.00 | 0.00 | 35 | 1013.4 |
| 20260507174029 | 69 | 226 | 11.3 | 20.0 | 0.00 | 0.00 | 0.00 | 35 | 1013.6 |
| 20260507173521 | 69 | 242 | 14.8 | 20.9 | 0.00 | 0.00 | 0.00 | 34 | 1013.7 |
| 20260507173149 | 69 | 204 | 12.2 | 19.1 | 0.00 | 0.00 | 0.00 | 35 | 1013.8 |
| 20260507172521 | 69 | 209 | 13.9 | 19.1 | 0.00 | 0.00 | 0.00 | 35 | 1013.9 |
| 20260507172024 | 68 | 209 | 10.4 | 19.1 | 0.00 | 0.00 | 0.00 | 35 | 1014.0 |
| 20260507171656 | 68 | 213 | 13.0 | 19.1 | 0.00 | 0.00 | 0.00 | 35 | 1014.0 |
| 20260507171044 | 68 | 171 | 13.9 | 20.0 | 0.00 | 0.00 | 0.00 | 36 | 1013.9 |
| 20260507170540 | 67 | 191 | 10.4 | 18.2 | 0.00 | 0.00 | 0.00 | 39 | 1014.1 |
| 20260507170208 | 67 | 217 | 12.2 | 19.1 | 0.00 | 0.00 | 0.00 | 39 | 1014.0 |
| 20260507165530 | 66 | 209 | 13.9 | 19.1 | 0.00 | 0.00 | 0.00 | 39 | 1014.2 |
| 20260507165025 | 65 | 215 | 12.2 | 17.4 | 0.00 | 0.00 | 0.00 | 40 | 1014.3 |
| 20260507164702 | 65 | 225 | 12.2 | 17.4 | 0.00 | 0.00 | 0.00 | 41 | 1014.3 |
| 20260507164022 | 65 | 198 | 12.2 | 19.1 | 0.00 | 0.00 | 0.00 | 42 | 1014.3 |
| 20260507163542 | 64 | 264 | 13.0 | 19.1 | 0.00 | 0.00 | 0.00 | 41 | 1014.4 |
| 20260507163116 | 64 | 229 | 12.2 | 18.2 | 0.00 | 0.00 | 0.00 | 43 | 1014.2 |
| 20260507162519 | 63 | 238 | 11.3 | 20.0 | 0.00 | 0.00 | 0.00 | 45 | 1014.2 |
| 20260507162040 | 63 | 225 | 10.4 | 20.0 | 0.00 | 0.00 | 0.00 | 47 | 1014.3 |
| 20260507161654 | 62 | 221 | 11.3 | 18.2 | 0.00 | 0.00 | 0.00 | 46 | 1014.5 |
| 20260507161020 | 62 | 229 | 12.2 | 18.2 | 0.00 | 0.00 | 0.00 | 46 | 1014.6 |
| 20260507160542 | 62 | 223 | 11.3 | 16.5 | 0.00 | 0.00 | 0.00 | 49 | 1014.8 |
| 20260507160214 | 61 | 225 | 13.0 | 16.5 | 0.00 | 0.00 | 0.00 | 48 | 1014.7 |
| 20260507155522 | 60 | 229 | 11.3 | 17.4 | 0.00 | 0.00 | 0.00 | 50 | 1014.7 |
| 20260507155047 | 59 | 205 | 10.4 | 13.0 | 0.00 | 0.00 | 0.00 | 52 | 1014.9 |
| 20260507154656 | 59 | 224 | 10.4 | 13.0 | 0.00 | 0.00 | 0.00 | 54 | 1014.9 |
| 20260507154023 | 58 | 232 | 11.3 | 18.2 | 0.00 | 0.00 | 0.00 | 56 | 1015.1 |
| 20260507153521 | 57 | 221 | 11.3 | 18.2 | 0.00 | 0.00 | 0.00 | 57 | 1015.0 |
| 20260507153156 | 57 | 283 | 11.3 | 16.5 | 0.00 | 0.00 | 0.00 | 59 | 1015.0 |
| 20260507152539 | 56 | 273 | 13.0 | 16.5 | 0.00 | 0.00 | 0.00 | 59 | 1014.9 |
| 20260507152019 | 56 | 289 | 11.3 | 16.5 | 0.00 | 0.00 | 0.00 | 61 | 1015.2 |
| 20260507151652 | 55 | 271 | 12.2 | 16.5 | 0.00 | 0.00 | 0.00 | 63 | 1015.2 |
| 20260507151026 | 55 | 360 | 11.3 | 15.6 | 0.00 | 0.00 | 0.00 | 65 | 1015.3 |
| 20260507150543 | 54 | 273 | 10.4 | 16.5 | 0.00 | 0.00 | 0.00 | 65 | 1015.2 |
| 20260507150211 | 54 | 360 | 9.6 | 17.4 | 0.00 | 0.00 | 0.00 | 66 | 1015.2 |
| 20260507145529 | 53 | 360 | 13.0 | 17.4 | 0.00 | 0.02 | 0.00 | 66 | 1015.1 |
| 20260507145018 | 53 | 360 | 12.2 | 16.5 | 0.00 | 0.02 | 0.00 | 69 | 1015.1 |
| 20260507144656 | 52 | 237 | 12.2 | 17.4 | 0.00 | 0.02 | 0.00 | 71 | 1015.2 |
| 20260507144022 | 52 | 245 | 13.9 | 17.4 | 0.00 | 0.02 | 0.00 | 70 | 1015.2 |
| 20260507143523 | 51 | 239 | 11.3 | 17.4 | 0.00 | 0.02 | 0.00 | 74 | 1015.2 |
| 20260507143158 | 51 | 240 | 12.2 | 17.4 | 0.00 | 0.02 | 0.00 | 74 | 1015.5 |
| 20260507142522 | 50 | 246 | 13.0 | 17.4 | 0.00 | 0.02 | 0.00 | 75 | 1015.6 |
| 20260507142040 | 50 | 255 | 13.0 | 17.4 | 0.00 | 0.02 | 0.00 | 77 | 1015.4 |
| 20260507141632 | 50 | 266 | 12.2 | 18.2 | 0.00 | 0.02 | 0.00 | 78 | 1015.5 |
| 20260507141028 | 49 | 245 | 10.4 | 17.4 | 0.00 | 0.02 | 0.00 | 81 | 1015.5 |
| 20260507140522 | 48 | 238 | 13.9 | 17.4 | 0.00 | 0.02 | 0.00 | 81 | 1015.6 |
| 20260507140151 | 48 | 235 | 12.2 | 16.5 | 0.00 | 0.02 | 0.00 | 82 | 1015.7 |
| 20260507135523 | 47 | 236 | 13.0 | 16.5 | 0.00 | 0.02 | 0.00 | 83 | 1015.7 |
| 20260507135027 | 47 | 244 | 12.2 | 16.5 | 0.00 | 0.02 | 0.00 | 85 | 1015.9 |
| 20260507134655 | 46 | 224 | 12.2 | 17.4 | 0.00 | 0.02 | 0.00 | 85 | 1016.0 |
| 20260507134037 | 46 | 232 | 11.3 | 16.5 | 0.00 | 0.02 | 0.00 | 86 | 1016.3 |
| 20260507133535 | 46 | 245 | 11.3 | 16.5 | 0.00 | 0.02 | 0.00 | 87 | 1016.0 |
| 20260507133213 | 45 | 360 | 9.6 | 15.6 | 0.00 | 0.02 | 0.00 | 88 | 1016.2 |
| 20260507132539 | 44 | 271 | 11.3 | 15.6 | 0.00 | 0.02 | 0.00 | 88 | 1016.2 |
| 20260507132022 | 44 | 281 | 11.3 | 15.6 | 0.00 | 0.02 | 0.00 | 89 | 1016.3 |
| 20260507131633 | 44 | 269 | 10.4 | 13.9 | 0.00 | 0.02 | 0.00 | 90 | 1016.1 |
| 20260507131032 | 44 | 273 | 9.6 | 14.8 | 0.00 | 0.02 | 0.00 | 91 | 1015.9 |
| 20260507130534 | 43 | 250 | 7.8 | 13.9 | 0.00 | 0.02 | 0.00 | 91 | 1015.7 |
| 20260507130212 | 42 | 227 | 10.4 | 13.9 | 0.00 | 0.02 | 0.00 | 91 | 1016.0 |
| 20260507125539 | 42 | 239 | 7.0 | 13.0 | 0.00 | 0.03 | 0.00 | 92 | 1016.2 |
| 20260507125032 | 41 | 227 | 9.6 | 13.0 | 0.00 | 0.03 | 0.00 | 92 | 1016.3 |
| 20260507124635 | 41 | 230 | 8.7 | 10.4 | 0.00 | 0.03 | 0.00 | 92 | 1016.2 |
| 20260507124019 | 40 | 225 | 7.0 | 10.4 | 0.00 | 0.03 | 0.00 | 92 | 1016.2 |
| 20260507123538 | 40 | 229 | 7.0 | 9.6 | 0.00 | 0.03 | 0.00 | 92 | 1016.2 |
| 20260507123124 | 39 | 227 | 7.0 | 8.7 | 0.00 | 0.03 | 0.00 | 92 | 1016.2 |
| 20260507122533 | 39 | 207 | 7.0 | 9.6 | 0.00 | 0.03 | 0.00 | 92 | 1016.1 |
| 20260507122037 | 39 | 244 | 6.1 | 9.6 | 0.00 | 0.03 | 0.00 | 93 | 1016.1 |
| 20260507121705 | 38 | 234 | 6.1 | 8.7 | 0.00 | 0.03 | 0.00 | 92 | 1016.1 |
| 20260507121022 | 38 | 247 | 5.2 | 8.7 | 0.00 | 0.03 | 0.00 | 92 | 1016.2 |
| 20260507120537 | 38 | 242 | 6.1 | 8.7 | 0.00 | 0.03 | 0.00 | 92 | 1016.1 |
| 20260507120130 | 38 | 247 | 4.3 | 7.8 | 0.00 | 0.03 | 0.00 | 92 | 1016.1 |
| 20260507115518 | 38 | 234 | 5.2 | 8.7 | 0.00 | 0.03 | 0.00 | 92 | 1016.2 |
| 20260507115023 | 38 | 229 | 6.1 | 8.7 | 0.00 | 0.03 | 0.00 | 92 | 1016.0 |
| 20260507114654 | 38 | 223 | 5.2 | 7.8 | 0.00 | 0.03 | 0.00 | 92 | 1016.1 |
| 20260507114042 | 38 | 224 | 4.3 | 7.8 | 0.00 | 0.03 | 0.00 | 92 | 1016.0 |
| 20260507113520 | 39 | 217 | 4.3 | 7.8 | 0.00 | 0.03 | 0.00 | 92 | 1016.0 |
| 20260507113154 | 39 | 215 | 4.3 | 7.8 | 0.00 | 0.03 | 0.00 | 91 | 1016.2 |
| 20260507112541 | 39 | 239 | 5.2 | 7.0 | 0.00 | 0.03 | 0.00 | 92 | 1016.0 |
| 20260507112023 | 39 | 225 | 3.5 | 6.1 | 0.00 | 0.03 | 0.00 | 91 | 1016.1 |
| 20260507111630 | 39 | 224 | 4.3 | 7.8 | 0.00 | 0.03 | 0.00 | 92 | 1016.0 |
| 20260507111036 | 39 | 236 | 4.3 | 8.7 | 0.00 | 0.03 | 0.00 | 92 | 1016.2 |
| 20260507110544 | 39 | 246 | 5.2 | 8.7 | 0.00 | 0.03 | 0.00 | 92 | 1016.3 |
| 20260507110117 | 39 | 244 | 6.1 | 8.7 | 0.00 | 0.03 | 0.00 | 92 | 1016.5 |
| 20260507105522 | 39 | 245 | 5.2 | 7.8 | 0.00 | 0.03 | 0.00 | 92 | 1016.4 |
| 20260507105022 | 39 | 242 | 5.2 | 7.8 | 0.00 | 0.03 | 0.00 | 91 | 1016.3 |
| 20260507104652 | 39 | 243 | 4.3 | 7.8 | 0.00 | 0.03 | 0.00 | 91 | 1016.4 |
| 20260507104020 | 39 | 241 | 5.2 | 7.8 | 0.00 | 0.03 | 0.00 | 91 | 1016.4 |
| 20260507103523 | 39 | 238 | 5.2 | 7.8 | 0.00 | 0.03 | 0.00 | 91 | 1016.4 |
| 20260507103115 | 39 | 247 | 5.2 | 7.8 | 0.00 | 0.03 | 0.00 | 91 | 1016.6 |
| 20260507102518 | 39 | 244 | 4.3 | 7.0 | 0.00 | 0.03 | 0.00 | 91 | 1016.4 |
| 20260507102037 | 39 | 237 | 4.3 | 7.8 | 0.00 | 0.03 | 0.00 | 91 | 1016.4 |
| 20260507101650 | 39 | 238 | 4.3 | 7.8 | 0.00 | 0.03 | 0.00 | 91 | 1016.5 |
| 20260507101031 | 39 | 232 | 3.5 | 7.0 | 0.00 | 0.03 | 0.00 | 91 | 1016.4 |
| 20260507100543 | 39 | 238 | 3.5 | 7.8 | 0.00 | 0.03 | 0.00 | 91 | 1016.7 |
| 20260507100125 | 39 | 248 | 4.3 | 8.7 | 0.00 | 0.03 | 0.00 | 91 | 1016.6 |
| 20260507095540 | 39 | 240 | 5.2 | 8.7 | 0.00 | 0.03 | 0.00 | 91 | 1016.5 |
| 20260507095034 | 39 | 241 | 5.2 | 7.8 | 0.00 | 0.03 | 0.00 | 92 | 1016.7 |
| 20260507094629 | 39 | 238 | 3.5 | 7.0 | 0.00 | 0.03 | 0.00 | 91 | 1016.7 |
| 20260507094018 | 38 | 246 | 2.6 | 7.0 | 0.00 | 0.03 | 0.00 | 91 | 1016.7 |
| 20260507093528 | 38 | 242 | 2.6 | 6.1 | 0.00 | 0.03 | 0.00 | 91 | 1016.8 |
| 20260507093150 | 38 | 248 | 2.6 | 7.0 | 0.00 | 0.03 | 0.00 | 91 | 1016.7 |
| 20260507092534 | 38 | 250 | 2.6 | 4.3 | 0.00 | 0.03 | 0.00 | 91 | 1016.8 |
| 20260507092025 | 38 | 240 | 2.6 | 4.3 | 0.00 | 0.03 | 0.00 | 91 | 1016.8 |
| 20260507091649 | 38 | 239 | 2.6 | 6.1 | 0.00 | 0.03 | 0.00 | 90 | 1016.8 |
| 20260507091024 | 37 | 238 | 3.5 | 6.1 | 0.00 | 0.03 | 0.00 | 91 | 1017.2 |
| 20260507090536 | 37 | 240 | 2.6 | 4.3 | 0.00 | 0.03 | 0.00 | 91 | 1017.2 |
| 20260507090207 | 37 | 244 | 1.7 | 3.5 | 0.00 | 0.03 | 0.00 | 90 | 1017.2 |
| 20260507085525 | 37 | 223 | 1.7 | 3.5 | 0.00 | 0.03 | 0.00 | 89 | 1017.0 |
| 20260507085017 | 38 | 229 | 1.7 | 3.5 | 0.00 | 0.03 | 0.00 | 90 | 1017.2 |
| 20260507084616 | 38 | 232 | 0.9 | 2.6 | 0.00 | 0.03 | 0.00 | 90 | 1017.2 |
| 20260507084031 | 38 | 240 | 0.9 | 3.5 | 0.00 | 0.03 | 0.00 | 90 | 1017.3 |
| 20260507083544 | 38 | 240 | 1.7 | 3.5 | 0.00 | 0.03 | 0.00 | 90 | 1017.3 |
| 20260507083148 | 39 | 243 | 0.9 | 3.5 | 0.00 | 0.03 | 0.00 | 90 | 1017.4 |
| 20260507082538 | 39 | 243 | 2.6 | 3.5 | 0.00 | 0.03 | 0.00 | 90 | 1017.4 |
| 20260507082022 | 39 | 248 | 1.7 | 3.5 | 0.00 | 0.03 | 0.00 | 89 | 1017.5 |
| 20260507081614 | 39 | 246 | 1.7 | 2.6 | 0.00 | 0.03 | 0.00 | 89 | 1017.5 |
| 20260507081030 | 39 | 244 | 1.7 | 3.5 | 0.00 | 0.03 | 0.00 | 89 | 1017.7 |
| 20260507080526 | 39 | 246 | 1.7 | 4.3 | 0.00 | 0.03 | 0.00 | 89 | 1017.7 |
| 20260507080141 | 39 | 250 | 2.6 | 4.3 | 0.00 | 0.03 | 0.00 | 89 | 1017.9 |
| 20260507075546 | 39 | 254 | 1.7 | 4.3 | 0.00 | 0.07 | 0.00 | 89 | 1017.9 |
| 20260507075025 | 40 | 247 | 2.6 | 7.0 | 0.00 | 0.07 | 0.00 | 89 | 1018.0 |
| 20260507074645 | 40 | 249 | 3.5 | 7.0 | 0.00 | 0.07 | 0.00 | 89 | 1018.0 |
| 20260507074032 | 40 | 256 | 3.5 | 7.0 | 0.00 | 0.07 | 0.00 | 89 | 1018.1 |
| 20260507073526 | 40 | 255 | 2.6 | 4.3 | 0.00 | 0.07 | 0.00 | 88 | 1018.2 |
| 20260507073150 | 40 | 241 | 1.7 | 3.5 | 0.00 | 0.07 | 0.00 | 88 | 1018.2 |
| 20260507072540 | 40 | 257 | 1.7 | 5.2 | 0.00 | 0.07 | 0.00 | 88 | 1018.3 |
| 20260507072030 | 40 | 259 | 2.6 | 5.2 | 0.00 | 0.07 | 0.00 | 88 | 1018.3 |
| 20260507071656 | 41 | 262 | 1.7 | 5.2 | 0.00 | 0.07 | 0.00 | 88 | 1018.3 |
| 20260507071038 | 41 | 259 | 1.7 | 5.2 | 0.00 | 0.07 | 0.00 | 88 | 1018.4 |
| 20260507070520 | 41 | 262 | 2.6 | 5.2 | 0.00 | 0.07 | 0.00 | 88 | 1018.4 |
| 20260507070204 | 41 | 263 | 2.6 | 5.2 | 0.00 | 0.07 | 0.00 | 88 | 1018.3 |
| 20260507065539 | 41 | 248 | 1.7 | 3.5 | 0.00 | 0.09 | 0.00 | 87 | 1018.5 |
| 20260507065039 | 41 | 248 | 0.9 | 3.5 | 0.00 | 0.09 | 0.00 | 87 | 1018.3 |
| 20260507064612 | 41 | 259 | 1.7 | 5.2 | 0.00 | 0.09 | 0.00 | 87 | 1018.3 |
| 20260507064044 | 42 | 264 | 2.6 | 6.1 | 0.00 | 0.09 | 0.00 | 87 | 1018.3 |
| 20260507063539 | 42 | 264 | 1.7 | 3.5 | 0.00 | 0.09 | 0.00 | 87 | 1018.4 |
| 20260507063132 | 42 | 269 | 1.7 | 3.5 | 0.00 | 0.09 | 0.00 | 87 | 1018.4 |
| 20260507062532 | 42 | 281 | 1.7 | 3.5 | 0.00 | 0.09 | 0.00 | 87 | 1018.4 |
| 20260507062043 | 42 | 279 | 1.7 | 3.5 | 0.00 | 0.09 | 0.00 | 87 | 1018.5 |
| 20260507061656 | 43 | 281 | 1.7 | 3.5 | 0.00 | 0.09 | 0.00 | 86 | 1018.5 |
| 20260507061021 | 43 | 284 | 1.7 | 3.5 | 0.00 | 0.09 | 0.00 | 86 | 1018.5 |
| 20260507060526 | 43 | 286 | 1.7 | 4.3 | 0.00 | 0.09 | 0.00 | 86 | 1018.4 |
| 20260507060200 | 44 | 286 | 1.7 | 6.1 | 0.00 | 0.09 | 0.00 | 86 | 1018.4 |
| 20260507055532 | 44 | 289 | 2.6 | 6.1 | 0.00 | 0.09 | 0.00 | 86 | 1018.5 |
| 20260507055037 | 44 | 280 | 2.6 | 6.1 | 0.00 | 0.09 | 0.00 | 86 | 1018.6 |
| 20260507054643 | 44 | 280 | 4.3 | 7.0 | 0.00 | 0.09 | 0.00 | 86 | 1018.5 |
| 20260507054040 | 44 | 277 | 4.3 | 7.8 | 0.00 | 0.09 | 0.00 | 86 | 1018.6 |
| 20260507053526 | 44 | 288 | 4.3 | 8.7 | 0.00 | 0.09 | 0.00 | 86 | 1018.8 |
| 20260507053148 | 44 | 286 | 6.1 | 8.7 | 0.00 | 0.09 | 0.00 | 86 | 1018.9 |
| 20260507052522 | 43 | 285 | 6.1 | 7.8 | 0.00 | 0.09 | 0.00 | 85 | 1018.9 |
| 20260507052021 | 43 | 288 | 4.3 | 7.0 | 0.00 | 0.09 | 0.00 | 85 | 1018.8 |
| 20260507051659 | 43 | 286 | 4.3 | 6.1 | 0.00 | 0.09 | 0.00 | 85 | 1018.9 |
| 20260507051032 | 43 | 287 | 2.6 | 4.3 | 0.00 | 0.09 | 0.00 | 84 | 1018.6 |
| 20260507050532 | 43 | 282 | 2.6 | 3.5 | 0.00 | 0.09 | 0.00 | 84 | 1018.5 |
| 20260507050218 | 43 | 275 | 1.7 | 4.3 | 0.00 | 0.09 | 0.00 | 84 | 1018.6 |
| 20260507045529 | 44 | 283 | 2.6 | 4.3 | 0.00 | 0.09 | 0.09 | 83 | 1018.5 |
| 20260507045019 | 44 | 281 | 1.7 | 3.5 | 0.00 | 0.09 | 0.09 | 83 | 1018.6 |
| 20260507044701 | 44 | 284 | 1.7 | 3.5 | 0.00 | 0.09 | 0.09 | 83 | 1018.5 |
| 20260507044047 | 44 | 286 | 2.6 | 3.5 | 0.00 | 0.09 | 0.09 | 82 | 1018.6 |
| 20260507043536 | 44 | 286 | 1.7 | 4.3 | 0.00 | 0.09 | 0.09 | 82 | 1018.7 |
| 20260507043151 | 45 | 298 | 2.6 | 4.3 | 0.00 | 0.09 | 0.09 | 81 | 1018.9 |
| 20260507042516 | 45 | 305 | 1.7 | 3.5 | 0.00 | 0.09 | 0.09 | 81 | 1019.0 |
| 20260507042028 | 46 | 294 | 1.7 | 3.5 | 0.00 | 0.09 | 0.09 | 81 | 1019.1 |
| 20260507041637 | 46 | 285 | 2.6 | 3.5 | 0.00 | 0.09 | 0.09 | 81 | 1019.2 |
| 20260507041030 | 46 | 279 | 1.7 | 2.6 | 0.00 | 0.09 | 0.09 | 80 | 1019.1 |
| 20260507040522 | 47 | 311 | 0.9 | 1.7 | 0.00 | 0.09 | 0.09 | 80 | 1019.1 |
| 20260507040133 | 47 | 71 | 0.0 | 1.7 | 0.00 | 0.09 | 0.09 | 80 | 1018.9 |
| 20260507035523 | 47 | 61 | 0.0 | 0.0 | 0.00 | 0.09 | 0.09 | 79 | 1018.9 |
| 20260507035043 | 48 | 71 | 0.0 | 0.0 | 0.00 | 0.09 | 0.09 | 79 | 1018.8 |
| 20260507034633 | 48 | 55 | 0.0 | 0.0 | 0.00 | 0.09 | 0.09 | 80 | 1018.8 |
| 20260507034040 | 48 | 53 | 0.0 | 0.0 | 0.00 | 0.09 | 0.09 | 79 | 1018.8 |
| 20260507033534 | 48 | 50 | 0.0 | 0.9 | 0.00 | 0.09 | 0.09 | 79 | 1018.8 |
| 20260507033147 | 48 | 49 | 0.0 | 0.9 | 0.00 | 0.09 | 0.09 | 78 | 1018.7 |
| 20260507032545 | 48 | 46 | 0.0 | 0.0 | 0.00 | 0.09 | 0.09 | 77 | 1018.6 |
| 20260507032044 | 48 | 46 | 0.0 | 0.0 | 0.00 | 0.09 | 0.09 | 76 | 1018.6 |
| 20260507031649 | 49 | 47 | 0.0 | 0.0 | 0.00 | 0.09 | 0.09 | 76 | 1018.5 |
| 20260507031021 | 49 | 46 | 0.0 | 1.7 | 0.00 | 0.09 | 0.09 | 76 | 1018.5 |
| 20260507030522 | 49 | 46 | 0.0 | 1.7 | 0.00 | 0.09 | 0.09 | 75 | 1018.4 |
| 20260507030125 | 49 | 47 | 0.0 | 0.0 | 0.00 | 0.09 | 0.09 | 75 | 1018.4 |
| 20260507025521 | 50 | 271 | 0.0 | 0.0 | 0.00 | 0.09 | 0.09 | 75 | 1018.3 |
| 20260507025037 | 50 | 247 | 0.0 | 1.7 | 0.00 | 0.09 | 0.09 | 76 | 1018.3 |
| 20260507024628 | 50 | 293 | 0.0 | 1.7 | 0.00 | 0.09 | 0.09 | 75 | 1018.3 |
| 20260507024019 | 50 | 306 | 0.0 | 0.9 | 0.00 | 0.09 | 0.09 | 76 | 1018.4 |
| 20260507023523 | 50 | 306 | 0.0 | 0.0 | 0.00 | 0.09 | 0.09 | 75 | 1018.5 |
| 20260507023151 | 50 | 306 | 0.0 | 0.0 | 0.00 | 0.09 | 0.09 | 74 | 1018.5 |
| 20260507022540 | 50 | 306 | 0.0 | 0.0 | 0.00 | 0.09 | 0.09 | 73 | 1018.4 |
| 20260507022037 | 50 | 306 | 0.0 | 0.0 | 0.00 | 0.09 | 0.09 | 73 | 1018.4 |
| 20260507021642 | 51 | 306 | 0.0 | 2.6 | 0.00 | 0.09 | 0.09 | 74 | 1018.4 |
| 20260507021033 | 51 | 307 | 0.0 | 2.6 | 0.00 | 0.09 | 0.09 | 73 | 1018.4 |
| 20260507020531 | 51 | 300 | 0.9 | 2.6 | 0.00 | 0.09 | 0.09 | 72 | 1018.3 |
| 20260507020157 | 51 | 300 | 1.7 | 2.6 | 0.00 | 0.09 | 0.09 | 72 | 1018.2 |
| 20260507015526 | 51 | 300 | 1.7 | 3.5 | 0.00 | 0.11 | 0.09 | 71 | 1018.0 |
| 20260507015020 | 51 | 301 | 1.7 | 3.5 | 0.00 | 0.11 | 0.09 | 70 | 1017.9 |
| 20260507014637 | 51 | 298 | 2.6 | 4.3 | 0.00 | 0.11 | 0.09 | 70 | 1017.9 |
| 20260507014042 | 52 | 287 | 2.6 | 4.3 | 0.00 | 0.11 | 0.09 | 69 | 1018.0 |
| 20260507013545 | 52 | 295 | 2.6 | 4.3 | 0.00 | 0.11 | 0.09 | 68 | 1017.9 |
| 20260507013150 | 52 | 301 | 2.6 | 5.2 | 0.00 | 0.11 | 0.09 | 68 | 1017.9 |
| 20260507012529 | 52 | 306 | 3.5 | 5.2 | 0.00 | 0.11 | 0.09 | 67 | 1018.1 |
| 20260507012044 | 52 | 304 | 3.5 | 6.1 | 0.00 | 0.11 | 0.09 | 66 | 1017.8 |
| 20260507011656 | 53 | 304 | 3.5 | 7.8 | 0.00 | 0.11 | 0.09 | 65 | 1017.8 |
| 20260507011026 | 53 | 287 | 3.5 | 7.8 | 0.00 | 0.11 | 0.09 | 63 | 1017.9 |
| 20260507010539 | 53 | 276 | 4.3 | 7.0 | 0.00 | 0.11 | 0.09 | 61 | 1017.9 |
| 20260507010151 | 53 | 262 | 2.6 | 5.2 | 0.00 | 0.11 | 0.09 | 60 | 1017.8 |
| 20260507005540 | 54 | 360 | 1.7 | 4.3 | 0.00 | 0.11 | 0.09 | 59 | 1018.0 |
| 20260507005041 | 54 | 360 | 1.7 | 5.2 | 0.00 | 0.11 | 0.09 | 59 | 1018.1 |
| 20260507004648 | 54 | 360 | 3.5 | 7.0 | 0.00 | 0.11 | 0.09 | 58 | 1018.1 |
| 20260507004031 | 55 | 360 | 2.6 | 7.0 | 0.00 | 0.11 | 0.09 | 58 | 1018.0 |
| 20260507003539 | 55 | 266 | 1.7 | 3.5 | 0.00 | 0.11 | 0.09 | 58 | 1017.9 |
| 20260507003158 | 55 | 273 | 0.9 | 6.1 | 0.00 | 0.11 | 0.09 | 57 | 1017.9 |
| 20260507002531 | 55 | 304 | 2.6 | 6.1 | 0.00 | 0.11 | 0.09 | 57 | 1017.9 |
| 20260507002021 | 54 | 275 | 0.9 | 4.3 | 0.00 | 0.11 | 0.09 | 58 | 1017.9 |
| 20260507001654 | 54 | 260 | 2.6 | 5.2 | 0.00 | 0.11 | 0.09 | 59 | 1017.7 |
| 20260507001022 | 54 | 312 | 2.6 | 5.2 | 0.00 | 0.11 | 0.09 | 58 | 1017.7 |
| 20260507000546 | 54 | 360 | 2.6 | 5.2 | 0.00 | 0.11 | 0.09 | 59 | 1017.7 |
| 20260507000205 | 54 | 360 | 1.7 | 4.3 | 0.00 | 0.11 | 0.09 | 58 | 1017.6 |
| 20260506235532 | 54 | 360 | 1.7 | 4.3 | 0.00 | 0.11 | 0.09 | 58 | 1017.8 |
| 20260506235030 | 54 | 360 | 1.7 | 5.2 | 0.00 | 0.11 | 0.09 | 57 | 1017.9 |
| 20260506234631 | 54 | 360 | 3.5 | 5.2 | 0.00 | 0.11 | 0.09 | 58 | 1017.9 |
| 20260506234044 | 54 | 360 | 1.7 | 5.2 | 0.00 | 0.11 | 0.09 | 57 | 1017.7 |
| 20260506233537 | 54 | 360 | 1.7 | 7.0 | 0.00 | 0.11 | 0.09 | 58 | 1017.9 |
| 20260506233117 | 55 | 306 | 0.0 | 7.0 | 0.00 | 0.11 | 0.09 | 58 | 1017.7 |
| 20260506232539 | 55 | 265 | 1.7 | 10.4 | 0.00 | 0.11 | 0.09 | 60 | 1017.8 |
| 20260506232044 | 54 | 360 | 1.7 | 10.4 | 0.00 | 0.11 | 0.09 | 62 | 1017.7 |
| 20260506231653 | 54 | 10 | 0.0 | 5.2 | 0.00 | 0.11 | 0.09 | 61 | 1017.9 |
| 20260506231038 | 54 | 41 | 3.5 | 5.2 | 0.00 | 0.11 | 0.09 | 62 | 1017.8 |
| 20260506230532 | 53 | 260 | 0.0 | 4.3 | 0.00 | 0.11 | 0.09 | 62 | 1017.7 |
| 20260506230118 | 53 | 300 | 0.9 | 4.3 | 0.00 | 0.11 | 0.09 | 62 | 1017.7 |
| 20260506225525 | 53 | 360 | 1.7 | 8.7 | 0.00 | 0.11 | 0.09 | 63 | 1017.6 |
| 20260506225025 | 53 | 360 | 2.6 | 8.7 | 0.00 | 0.11 | 0.09 | 65 | 1017.8 |
| 20260506224621 | 53 | 360 | 3.5 | 7.0 | 0.00 | 0.11 | 0.09 | 64 | 1017.6 |
| 20260506224022 | 53 | 360 | 0.0 | 3.5 | 0.00 | 0.11 | 0.09 | 64 | 1017.6 |
| 20260506223538 | 53 | 360 | 0.0 | 7.8 | 0.00 | 0.11 | 0.09 | 65 | 1017.7 |
| 20260506223153 | 53 | 360 | 3.5 | 7.8 | 0.00 | 0.11 | 0.09 | 66 | 1017.5 |
| 20260506222528 | 53 | 360 | 5.2 | 7.8 | 0.00 | 0.11 | 0.09 | 66 | 1017.6 |
| 20260506222033 | 52 | 360 | 0.9 | 3.5 | 0.00 | 0.11 | 0.09 | 66 | 1017.7 |
| 20260506221642 | 52 | 360 | 0.9 | 5.2 | 0.00 | 0.11 | 0.09 | 66 | 1017.7 |
| 20260506221038 | 52 | 360 | 2.6 | 5.2 | 0.00 | 0.11 | 0.09 | 67 | 1017.6 |
| 20260506220529 | 52 | 360 | 3.5 | 5.2 | 0.00 | 0.11 | 0.09 | 67 | 1017.7 |
| 20260506220128 | 52 | 360 | 2.6 | 7.8 | 0.00 | 0.11 | 0.09 | 67 | 1017.7 |
| 20260506215544 | 52 | 360 | 4.3 | 7.8 | 0.00 | 0.11 | 0.09 | 68 | 1017.7 |
| 20260506215041 | 52 | 360 | 1.7 | 7.0 | 0.00 | 0.11 | 0.09 | 67 | 1017.8 |
| 20260506214612 | 52 | 360 | 3.5 | 7.0 | 0.00 | 0.11 | 0.09 | 68 | 1017.8 |
| 20260506214044 | 51 | 360 | 4.3 | 7.0 | 0.00 | 0.11 | 0.09 | 69 | 1017.7 |
| 20260506213539 | 51 | 360 | 1.7 | 5.2 | 0.00 | 0.11 | 0.09 | 68 | 1017.7 |
| 20260506213125 | 51 | 360 | 3.5 | 5.2 | 0.00 | 0.11 | 0.09 | 68 | 1018.0 |
| 20260506212534 | 51 | 360 | 1.7 | 3.5 | 0.00 | 0.11 | 0.09 | 68 | 1018.0 |
| 20260506212050 | 51 | 360 | 0.0 | 5.2 | 0.00 | 0.11 | 0.09 | 68 | 1018.1 |
| 20260506211659 | 51 | 360 | 2.6 | 5.2 | 0.00 | 0.11 | 0.09 | 69 | 1018.1 |
| 20260506211044 | 51 | 160 | 0.0 | 4.3 | 0.00 | 0.11 | 0.09 | 69 | 1018.1 |
| 20260506210534 | 51 | 360 | 1.7 | 4.3 | 0.00 | 0.11 | 0.09 | 68 | 1018.1 |
| 20260506210226 | 51 | 360 | 1.7 | 4.3 | 0.00 | 0.11 | 0.09 | 69 | 1018.2 |
| 20260506205524 | 51 | 360 | 0.9 | 8.7 | 0.00 | 0.11 | 0.09 | 69 | 1018.2 |
| 20260506205027 | 51 | 360 | 0.9 | 8.7 | 0.00 | 0.11 | 0.09 | 70 | 1018.3 |
| 20260506204706 | 51 | 360 | 2.6 | 5.2 | 0.00 | 0.11 | 0.09 | 70 | 1018.3 |
| 20260506204036 | 51 | 360 | 2.6 | 5.2 | 0.00 | 0.11 | 0.09 | 70 | 1018.3 |
| 20260506203529 | 51 | 360 | 3.5 | 8.7 | 0.00 | 0.11 | 0.09 | 69 | 1018.3 |
| 20260506203157 | 51 | 360 | 2.6 | 4.3 | 0.00 | 0.11 | 0.09 | 69 | 1018.3 |
| 20260506202531 | 51 | 150 | 1.7 | 4.3 | 0.00 | 0.11 | 0.09 | 68 | 1018.4 |
| 20260506202023 | 51 | 177 | 1.7 | 4.3 | 0.00 | 0.11 | 0.09 | 68 | 1018.3 |
| 20260506201700 | 51 | 193 | 1.7 | 4.3 | 0.00 | 0.11 | 0.09 | 67 | 1018.3 |
| 20260506201039 | 51 | 360 | 0.0 | 5.2 | 0.00 | 0.11 | 0.09 | 67 | 1018.4 |
| 20260506200519 | 51 | 360 | 1.7 | 5.2 | 0.00 | 0.11 | 0.09 | 68 | 1018.3 |
| 20260506200215 | 51 | 360 | 0.0 | 3.5 | 0.00 | 0.11 | 0.09 | 68 | 1018.5 |
| 20260506195530 | 51 | 360 | 1.7 | 4.3 | 0.00 | 0.11 | 0.09 | 68 | 1018.5 |
| 20260506195031 | 51 | 360 | 1.7 | 5.2 | 0.00 | 0.11 | 0.09 | 68 | 1018.6 |
| 20260506194657 | 51 | 360 | 0.9 | 7.8 | 0.00 | 0.11 | 0.09 | 69 | 1018.5 |
| 20260506194040 | 51 | 167 | 0.9 | 8.7 | 0.00 | 0.11 | 0.09 | 69 | 1018.6 |
| 20260506193540 | 51 | 321 | 2.6 | 8.7 | 0.00 | 0.11 | 0.09 | 69 | 1018.6 |
| 20260506193152 | 51 | 360 | 2.6 | 7.0 | 0.00 | 0.11 | 0.09 | 69 | 1018.7 |
| 20260506192534 | 51 | 360 | 2.6 | 7.0 | 0.00 | 0.11 | 0.09 | 69 | 1018.8 |
| 20260506192048 | 50 | 360 | 1.7 | 4.3 | 0.00 | 0.11 | 0.09 | 69 | 1018.8 |
| 20260506191656 | 50 | 360 | 0.9 | 7.8 | 0.00 | 0.11 | 0.09 | 69 | 1018.6 |
| 20260506191036 | 50 | 360 | 2.6 | 7.8 | 0.00 | 0.11 | 0.09 | 70 | 1018.8 |
| 20260506190518 | 50 | 360 | 0.9 | 5.2 | 0.00 | 0.11 | 0.09 | 70 | 1018.8 |
| 20260506190219 | 50 | 360 | 2.6 | 5.2 | 0.00 | 0.11 | 0.09 | 71 | 1018.9 |
| 20260506185531 | 50 | 360 | 1.7 | 5.2 | 0.00 | 0.11 | 0.09 | 72 | 1018.9 |
| 20260506185043 | 50 | 360 | 1.7 | 7.0 | 0.00 | 0.11 | 0.09 | 72 | 1018.9 |
| 20260506184701 | 50 | 360 | 1.7 | 7.0 | 0.00 | 0.11 | 0.09 | 74 | 1018.9 |
| 20260506184016 | 49 | 360 | 1.7 | 7.8 | 0.00 | 0.11 | 0.09 | 75 | 1018.9 |
| 20260506183530 | 49 | 360 | 2.6 | 7.8 | 0.00 | 0.11 | 0.09 | 75 | 1019.0 |
| 20260506183148 | 49 | 360 | 2.6 | 7.0 | 0.00 | 0.11 | 0.09 | 77 | 1018.9 |
| 20260506182728 | 49 | 360 | 2.6 | 7.0 | 0.00 | 0.11 | 0.09 | 78 | 1019.0 |
| 20260506182021 | 48 | 360 | 3.5 | 7.0 | 0.00 | 0.11 | 0.09 | 79 | 1019.1 |
| 20260506181647 | 48 | 360 | 2.6 | 9.6 | 0.00 | 0.11 | 0.09 | 80 | 1019.1 |
| 20260506181019 | 48 | 360 | 4.3 | 9.6 | 0.00 | 0.11 | 0.09 | 80 | 1019.2 |
| 20260506180537 | 48 | 360 | 3.5 | 7.8 | 0.00 | 0.11 | 0.09 | 81 | 1019.3 |
| 20260506180140 | 48 | 360 | 2.6 | 7.8 | 0.00 | 0.11 | 0.09 | 82 | 1019.4 |
| 20260506175531 | 48 | 360 | 3.5 | 8.7 | 0.00 | 0.11 | 0.09 | 83 | 1019.3 |